Weather History for KVES - June, 2013

Change the Weather History Date:

Friday, June 28, 2013

  Actual Average (KDAY) Record (KDAY)
Temperature  
Mean Temperature 72 °F 74 °F  
Max Temperature 82 °F 83 °F 102 °F (2012)
Min Temperature 62 °F 64 °F 52 °F (1950)
Degree Days  
Heating Degree Days 0 0  
Month to date heating degree days 22  
Since 1 June heating degree days 22  
Since 1 July heating degree days 5642  
Cooling Degree Days 7 9  
Month to date cooling degree days 172  
Year to date cooling degree days 242  
Since 1 June cooling degree days 172  
Growing Degree Days 22 (Base 50)    
Moisture  
Dew Point 64 °F    
Average Humidity 82    
Maximum Humidity 100    
Minimum Humidity 45    
Precipitation  
Precipitation 0.27 in 0.14 in 2.94 in (1980)
Month to date precipitation 3.90  
Year to date precipitation 20.94  
Snow  
Snow 0.00 in 0.00 in 0.00 in ()
Month to date snowfall 0.0  
Since 1 June snowfall 0.0  
Since 1 July snowfall 23.3  
Snow Depth -    
Sea Level Pressure  
Sea Level Pressure 29.65 in    
Wind  
Wind Speed 6 mph (West)    
Max Wind Speed 29 mph    
Max Gust Speed 38 mph    
Visibility 10 miles    
Events Rain , Thunderstorm    
T = Trace of Precipitation, MM = Missing Value Source: NWS Daily Summary

Daily Weather History Graph

Daily Weather History Graph

Search for Another Location

Airport or City:

Trip Planner

Search our weather history database for the weather conditions in past years. The results will help you decide how hot, cold, wet, or windy it might be!

Date:

Astronomy

Jun. 28, 2013 Rise Set
Actual Time 6:11 AM EDT 9:11 PM EDT
Civil Twilight 5:38 AM EDT 9:44 PM EDT
Nautical Twilight 4:56 AM EDT 10:26 PM EDT
Astronomical Twilight 4:07 AM EDT 11:15 PM EDT
Moon 12:07 AM EDT (6/28) 12:18 PM EDT (6/28)
Length of Visible Light 16h 06m
Length of Day
15h 00m
Waning Gibbous, 66% of the Moon is Illuminated
Jun 28
Waning Gibbous
Jun 30
Last Quarter
Jul 8
New
Jul 15
First Quarter
Jul 22
Full

Hourly Weather History & Observations

Time (EDT) Temp. Heat Index Dew Point Humidity Pressure Visibility Wind Dir Wind Speed Gust Speed Precip Events Conditions
12:15 AM 68.0 °F - 66.2 °F 94% 29.70 in 10.0 mi Calm Calm - N/A   Scattered Clouds
12:35 AM 68.0 °F - 66.2 °F 94% 29.70 in 10.0 mi SSW 3.5 mph - N/A   Scattered Clouds
12:55 AM 68.0 °F - 66.2 °F 94% 29.70 in 10.0 mi South 3.5 mph - N/A   Clear
1:15 AM 68.0 °F - 64.4 °F 88% 29.70 in 10.0 mi SSW 5.8 mph - N/A   Clear
1:35 AM 66.2 °F - 64.4 °F 94% 29.69 in 10.0 mi SSW 4.6 mph - N/A   Scattered Clouds
1:55 AM 68.0 °F - 64.4 °F 88% 29.68 in 10.0 mi South 3.5 mph - N/A   Mostly Cloudy
2:35 AM 66.2 °F - 64.4 °F 94% 29.68 in 10.0 mi Calm Calm - N/A   Clear
2:55 AM 66.2 °F - 64.4 °F 94% 29.68 in 10.0 mi Calm Calm - N/A   Clear
3:15 AM 64.4 °F - 64.4 °F 100% 29.68 in 10.0 mi Calm Calm - N/A   Clear
3:35 AM 64.4 °F - 64.4 °F 100% 29.67 in 10.0 mi Calm Calm - N/A   Clear
3:55 AM 64.4 °F - 64.4 °F 100% 29.66 in 7.0 mi Calm Calm - N/A   Clear
4:15 AM 64.4 °F - 64.4 °F 100% 29.66 in 10.0 mi West 4.6 mph - N/A   Clear
4:35 AM 68.0 °F - 68.0 °F 100% 29.66 in 10.0 mi West 5.8 mph - N/A   Clear
4:55 AM 68.0 °F - 66.2 °F 94% 29.66 in 10.0 mi West 5.8 mph - N/A   Clear
5:15 AM 68.0 °F - 68.0 °F 100% 29.66 in 10.0 mi West 8.1 mph - N/A   Clear
5:35 AM 68.0 °F - 68.0 °F 100% 29.66 in 10.0 mi West 9.2 mph - N/A   Clear
5:55 AM 68.0 °F - 68.0 °F 100% 29.66 in 10.0 mi West 6.9 mph - N/A   Clear
6:15 AM 68.0 °F - 68.0 °F 100% 29.66 in 10.0 mi West 6.9 mph - N/A   Clear
6:35 AM 68.0 °F - 66.2 °F 94% 29.66 in 10.0 mi WNW 9.2 mph - N/A   Clear
6:55 AM 68.0 °F - 68.0 °F 100% 29.66 in 10.0 mi West 8.1 mph - N/A   Clear
7:15 AM 68.0 °F - 68.0 °F 100% 29.67 in 10.0 mi West 6.9 mph - N/A   Clear
7:35 AM 69.8 °F - 68.0 °F 94% 29.66 in 10.0 mi North - - N/A   Clear
7:55 AM 69.8 °F - 68.0 °F 94% 29.67 in 10.0 mi North - - N/A   Clear
8:55 AM 71.6 °F - 68.0 °F 88% 29.67 in 10.0 mi North - - N/A   Clear
9:15 AM 71.6 °F - 68.0 °F 88% 29.67 in 10.0 mi North - - N/A   Clear
9:35 AM 73.4 °F - 68.0 °F 83% 29.66 in 10.0 mi West 11.5 mph - N/A   Clear
9:55 AM 73.4 °F - 68.0 °F 83% 29.65 in 10.0 mi West 12.7 mph - N/A   Clear
10:15 AM 75.2 °F - 68.0 °F 78% 29.66 in 10.0 mi NW 9.2 mph - N/A   Clear
10:35 AM 75.2 °F - 68.0 °F 78% 29.66 in 10.0 mi West 12.7 mph - N/A   Mostly Cloudy
10:55 AM 73.4 °F - 68.0 °F 83% 29.66 in 10.0 mi NW 6.9 mph - N/A   Overcast
11:15 AM 75.2 °F - 68.0 °F 78% 29.66 in 10.0 mi WNW 5.8 mph - N/A   Overcast
11:35 AM 77.0 °F - 68.0 °F 74% 29.66 in 10.0 mi WNW 12.7 mph 18.4 mph N/A   Mostly Cloudy
11:55 AM 78.8 °F - 64.4 °F 61% 29.66 in 10.0 mi NW 16.1 mph 19.6 mph N/A   Scattered Clouds
12:15 PM 78.8 °F - 64.4 °F 61% 29.66 in 10.0 mi WNW 15.0 mph 18.4 mph N/A   Mostly Cloudy
12:35 PM 78.8 °F - 62.6 °F 57% 29.65 in 10.0 mi NW 13.8 mph 20.7 mph N/A   Scattered Clouds
12:55 PM 78.8 °F - 60.8 °F 54% 29.65 in 10.0 mi WNW 16.1 mph 21.9 mph N/A   Mostly Cloudy
1:15 PM 78.8 °F - 60.8 °F 54% 29.65 in 10.0 mi NW 19.6 mph 24.2 mph N/A   Mostly Cloudy
1:35 PM 78.8 °F - 60.8 °F 54% 29.65 in 10.0 mi WNW 16.1 mph 23.0 mph N/A   Mostly Cloudy
1:55 PM 80.6 °F 81.1 °F 59.0 °F 48% 29.64 in 10.0 mi WNW 17.3 mph 24.2 mph N/A   Scattered Clouds
2:15 PM 80.6 °F 81.1 °F 59.0 °F 48% 29.63 in 10.0 mi NW 15.0 mph 21.9 mph N/A   Scattered Clouds
2:35 PM 80.6 °F 81.1 °F 59.0 °F 48% 29.62 in 10.0 mi NW 15.0 mph 24.2 mph N/A   Clear
2:55 PM 82.4 °F 82.5 °F 59.0 °F 45% 29.62 in 10.0 mi West 13.8 mph 20.7 mph N/A   Mostly Cloudy
3:15 PM 80.6 °F 80.8 °F 57.2 °F 45% 29.62 in 10.0 mi West 12.7 mph 18.4 mph N/A   Mostly Cloudy
3:35 PM 77.0 °F - 59.0 °F 54% 29.63 in 10.0 mi West 13.8 mph 23.0 mph N/A   Overcast
3:55 PM 66.2 °F - 60.8 °F 83% 29.68 in 2.0 mi WNW 28.8 mph 38.0 mph 0.14 in Rain , Thunderstorm Heavy Thunderstorms and Rain
4:15 PM 62.6 °F - 59.0 °F 88% 29.67 in 7.0 mi WNW 15.0 mph 27.6 mph 0.08 in Rain , Thunderstorm Heavy Thunderstorms and Rain
4:35 PM 64.4 °F - 60.8 °F 88% 29.64 in 10.0 mi WSW 3.5 mph - 0.12 in   Mostly Cloudy
4:55 PM 66.2 °F - 62.6 °F 88% 29.61 in 10.0 mi Calm Calm - 0.12 in   Scattered Clouds
5:15 PM 68.0 °F - 62.6 °F 83% 29.61 in 10.0 mi WSW 5.8 mph - N/A   Clear
5:35 PM 71.6 °F - 62.6 °F 73% 29.61 in 10.0 mi SW 4.6 mph - N/A   Clear
5:55 PM 73.4 °F - 62.6 °F 69% 29.61 in 10.0 mi WSW 6.9 mph - N/A   Clear
6:15 PM 73.4 °F - 60.8 °F 65% 29.63 in 10.0 mi SW 10.4 mph - N/A   Scattered Clouds
6:35 PM 71.6 °F - 62.6 °F 73% 29.62 in 10.0 mi WSW 10.4 mph - N/A   Scattered Clouds
6:55 PM 69.8 °F - 62.6 °F 78% 29.63 in 10.0 mi West 6.9 mph - N/A   Clear
7:15 PM 71.6 °F - 62.6 °F 73% 29.63 in 10.0 mi WSW 11.5 mph - N/A   Scattered Clouds
7:35 PM 71.6 °F - 62.6 °F 73% 29.61 in 10.0 mi WSW 8.1 mph - N/A   Clear
7:55 PM 69.8 °F - 62.6 °F 78% 29.62 in 10.0 mi WSW 9.2 mph - N/A   Clear
8:15 PM 69.8 °F - 62.6 °F 78% 29.62 in 10.0 mi West 9.2 mph - N/A   Clear
8:35 PM 69.8 °F - 60.8 °F 73% 29.62 in 10.0 mi West 6.9 mph - N/A   Scattered Clouds
8:55 PM 68.0 °F - 62.6 °F 83% 29.62 in 10.0 mi WSW 5.8 mph - N/A   Scattered Clouds
9:15 PM 68.0 °F - 64.4 °F 88% 29.61 in 10.0 mi WSW 3.5 mph - N/A   Scattered Clouds
9:35 PM 68.0 °F - 64.4 °F 88% 29.63 in 10.0 mi North 3.5 mph - N/A   Scattered Clouds
9:55 PM 66.2 °F - 64.4 °F 94% 29.63 in 10.0 mi Calm Calm - N/A   Scattered Clouds
10:15 PM 68.0 °F - 64.4 °F 88% 29.64 in 10.0 mi West 5.8 mph - N/A   Mostly Cloudy
10:35 PM 66.2 °F - 62.6 °F 88% 29.64 in 10.0 mi NW 8.1 mph - N/A   Drizzle
10:55 PM 64.4 °F - 62.6 °F 94% 29.63 in 10.0 mi WNW 4.6 mph - N/A   Mostly Cloudy
11:15 PM 64.4 °F - 62.6 °F 94% 29.63 in 10.0 mi WSW 3.5 mph - 0.01 in   Mostly Cloudy
11:35 PM 64.4 °F - 62.6 °F 94% 29.62 in 10.0 mi WSW 6.9 mph - 0.01 in   Overcast
11:55 PM 64.4 °F - 60.8 °F 88% 29.62 in 10.0 mi West 3.5 mph - 0.01 in   Overcast